TimeCDT,TemperatureF,Dew PointF,Humidity,Sea Level PressureIn,VisibilityMPH,Wind Direction,Wind SpeedMPH,Gust SpeedMPH,PrecipitationIn,Events,Conditions,WindDirDegrees,DateUTC
12:15 AM,39.9,28.4,63,29.86,10.0,West,6.9,-,N/A,,Clear,280,2012-10-31 05:15:00
12:35 AM,39.0,28.4,66,29.86,10.0,West,6.9,-,N/A,,Clear,270,2012-10-31 05:35:00
12:55 AM,39.0,28.6,66,29.86,10.0,West,8.1,-,N/A,,Clear,270,2012-10-31 05:55:00
1:15 AM,40.1,28.4,63,29.86,10.0,West,9.2,-,N/A,,Clear,280,2012-10-31 06:15:00
1:35 AM,40.1,28.2,63,29.86,10.0,West,8.1,-,N/A,,Clear,280,2012-10-31 06:35:00
1:55 AM,39.7,28.4,64,29.87,10.0,West,9.2,-,N/A,,Clear,280,2012-10-31 06:55:00
2:15 AM,39.0,28.4,66,29.87,10.0,West,9.2,-,N/A,,Clear,280,2012-10-31 07:15:00
2:35 AM,38.3,28.4,68,29.87,10.0,WNW,8.1,-,N/A,,Clear,290,2012-10-31 07:35:00
2:55 AM,38.5,28.4,67,29.87,10.0,WNW,9.2,-,N/A,,Clear,290,2012-10-31 07:55:00
3:15 AM,37.8,28.2,68,29.86,10.0,West,8.1,-,N/A,,Clear,280,2012-10-31 08:15:00
3:35 AM,37.0,28.2,70,29.86,10.0,West,6.9,-,N/A,,Clear,280,2012-10-31 08:35:00
3:55 AM,36.7,28.4,72,29.87,10.0,WNW,8.1,-,N/A,,Clear,290,2012-10-31 08:55:00
4:15 AM,36.7,28.4,72,29.87,10.0,West,9.2,-,N/A,,Clear,280,2012-10-31 09:15:00
4:35 AM,37.0,28.4,71,29.88,10.0,WNW,9.2,-,N/A,,Clear,290,2012-10-31 09:35:00
4:55 AM,37.4,28.4,70,29.88,10.0,West,9.2,-,N/A,,Clear,280,2012-10-31 09:55:00
5:15 AM,36.5,28.6,73,29.88,10.0,West,9.2,-,N/A,,Clear,280,2012-10-31 10:15:00
5:35 AM,36.5,28.4,72,29.88,10.0,WNW,8.1,-,N/A,,Clear,290,2012-10-31 10:35:00
5:55 AM,36.0,28.4,74,29.88,10.0,WNW,8.1,-,N/A,,Clear,290,2012-10-31 10:55:00
6:15 AM,35.4,28.4,76,29.89,10.0,WNW,8.1,-,N/A,,Clear,290,2012-10-31 11:15:00
6:35 AM,35.1,28.4,77,29.89,10.0,West,8.1,-,N/A,,Clear,280,2012-10-31 11:35:00
6:55 AM,34.5,28.4,78,29.89,10.0,West,6.9,-,N/A,,Clear,280,2012-10-31 11:55:00
7:15 AM,34.7,28.4,78,29.89,10.0,West,6.9,-,N/A,,Clear,270,2012-10-31 12:15:00
7:35 AM,35.1,28.8,78,29.89,10.0,West,6.9,-,N/A,,Clear,270,2012-10-31 12:35:00
7:55 AM,36.1,29.1,76,29.90,10.0,West,8.1,-,N/A,,Clear,280,2012-10-31 12:55:00
8:15 AM,37.4,29.3,73,29.91,10.0,WNW,8.1,-,N/A,,Clear,290,2012-10-31 13:15:00
8:35 AM,38.7,29.8,71,29.91,10.0,WNW,9.2,-,N/A,,Clear,290,2012-10-31 13:35:00
8:55 AM,40.1,30.0,67,29.92,10.0,WNW,9.2,-,N/A,,Clear,300,2012-10-31 13:55:00
9:15 AM,41.0,29.7,64,29.92,10.0,WNW,13.8,18.4,N/A,,Clear,300,2012-10-31 14:15:00
9:35 AM,41.2,30.0,65,29.93,10.0,NW,11.5,17.3,N/A,,Clear,310,2012-10-31 14:35:00
9:55 AM,42.8,30.2,61,29.93,10.0,NW,12.7,-,N/A,,Clear,310,2012-10-31 14:55:00
10:15 AM,43.7,29.8,58,29.93,10.0,WNW,15.0,18.4,N/A,,Clear,290,2012-10-31 15:15:00
10:35 AM,45.1,31.3,58,29.93,10.0,WNW,12.7,-,N/A,,Clear,290,2012-10-31 15:35:00
10:55 AM,45.9,30.9,56,29.93,10.0,West,16.1,-,N/A,,Clear,280,2012-10-31 15:55:00
11:15 AM,46.6,30.2,53,29.93,10.0,West,16.1,-,N/A,,Clear,280,2012-10-31 16:15:00
11:35 AM,48.0,30.9,52,29.93,10.0,West,15.0,-,N/A,,Clear,280,2012-10-31 16:35:00
11:55 AM,48.7,30.9,50,29.93,10.0,WNW,16.1,-,N/A,,Clear,300,2012-10-31 16:55:00
12:15 PM,50.2,31.5,49,29.92,10.0,WNW,15.0,20.7,N/A,,Clear,300,2012-10-31 17:15:00
12:35 PM,49.1,31.6,51,29.92,10.0,WNW,16.1,-,N/A,,Clear,300,2012-10-31 17:35:00
12:55 PM,48.7,31.8,52,29.92,10.0,WNW,12.7,17.3,N/A,,Clear,290,2012-10-31 17:55:00
1:15 PM,51.4,32.5,49,29.91,10.0,West,15.0,-,N/A,,Clear,280,2012-10-31 18:15:00
1:35 PM,50.5,32.4,50,29.91,10.0,NW,12.7,-,N/A,,Clear,310,2012-10-31 18:35:00
1:55 PM,50.9,32.5,49,29.90,10.0,NW,12.7,20.7,N/A,,Clear,320,2012-10-31 18:55:00
2:15 PM,51.6,32.2,47,29.90,5.0,NW,15.0,18.4,N/A,,Haze,310,2012-10-31 19:15:00
2:55 PM,52.2,32.5,47,29.89,10.0,WNW,13.8,17.3,N/A,,Clear,300,2012-10-31 19:55:00
3:15 PM,53.2,30.6,42,29.89,10.0,NW,13.8,23.0,N/A,,Clear,310,2012-10-31 20:15:00
3:35 PM,52.7,30.7,43,29.89,10.0,West,13.8,-,N/A,,Clear,280,2012-10-31 20:35:00
3:55 PM,53.8,29.8,40,29.89,10.0,WNW,13.8,19.6,N/A,,Clear,300,2012-10-31 20:55:00
4:15 PM,53.2,28.4,38,29.90,10.0,WNW,16.1,21.9,N/A,,Clear,290,2012-10-31 21:15:00
4:35 PM,53.1,28.4,39,29.90,10.0,WNW,16.1,-,N/A,,Clear,290,2012-10-31 21:35:00
4:55 PM,52.7,28.0,39,29.90,10.0,West,17.3,23.0,N/A,,Clear,280,2012-10-31 21:55:00
5:15 PM,51.6,27.3,39,29.90,10.0,West,16.1,23.0,N/A,,Clear,280,2012-10-31 22:15:00
5:35 PM,50.4,27.3,41,29.90,10.0,West,15.0,18.4,N/A,,Clear,280,2012-10-31 22:35:00
5:55 PM,47.8,28.8,48,29.91,10.0,WNW,9.2,-,N/A,,Clear,290,2012-10-31 22:55:00
6:15 PM,45.3,29.1,53,29.91,10.0,West,6.9,-,N/A,,Clear,280,2012-10-31 23:15:00
6:35 PM,44.2,28.8,55,29.92,10.0,West,6.9,-,N/A,,Clear,280,2012-10-31 23:35:00
6:55 PM,44.1,28.2,54,29.92,10.0,West,4.6,-,N/A,,Clear,280,2012-10-31 23:55:00
7:15 PM,43.3,28.2,55,29.92,10.0,West,4.6,-,N/A,,Clear,270,2012-11-01 00:15:00
7:35 PM,41.0,29.3,63,29.93,10.0,West,3.5,-,N/A,,Clear,270,2012-11-01 00:35:00
7:55 PM,38.5,30.2,72,29.93,10.0,West,3.5,-,N/A,,Clear,270,2012-11-01 00:55:00
8:15 PM,39.2,29.7,69,29.94,10.0,West,3.5,-,N/A,,Clear,270,2012-11-01 01:15:00
8:35 PM,41.0,28.6,61,29.94,10.0,Calm,Calm,-,N/A,,Clear,0,2012-11-01 01:35:00
8:55 PM,39.6,29.5,67,29.95,10.0,West,3.5,-,N/A,,Clear,270,2012-11-01 01:55:00
9:15 PM,36.9,30.0,76,29.95,10.0,Calm,Calm,-,N/A,,Clear,0,2012-11-01 02:15:00
9:35 PM,35.8,29.3,77,29.95,10.0,Calm,Calm,-,N/A,,Clear,0,2012-11-01 02:35:00
9:55 PM,34.3,29.5,82,29.95,10.0,WSW,3.5,-,N/A,,Clear,240,2012-11-01 02:55:00
10:15 PM,34.3,30.2,85,29.95,10.0,WSW,3.5,-,N/A,,Clear,240,2012-11-01 03:15:00
10:35 PM,34.0,30.2,86,29.95,10.0,WSW,4.6,-,N/A,,Clear,240,2012-11-01 03:35:00
10:55 PM,32.2,29.5,90,29.95,10.0,WSW,4.6,-,N/A,,Clear,240,2012-11-01 03:55:00
11:15 PM,32.0,29.8,92,29.95,10.0,WSW,4.6,-,N/A,,Clear,240,2012-11-01 04:15:00
11:35 PM,32.2,29.8,91,29.95,10.0,WSW,5.8,-,N/A,,Clear,250,2012-11-01 04:35:00
11:55 PM,32.9,29.1,86,29.95,10.0,WSW,5.8,-,N/A,,Clear,250,2012-11-01 04:55:00